Time,TemperatureF,DewpointF,PressureIn,WindDirection,WindDirectionDegrees,WindSpeedMPH,WindSpeedGustMPH,Humidity,HourlyPrecipIn,Conditions,Clouds,dailyrainin,SoftwareType,DateUTC
2013-05-26 00:09:00,49.6,46.0,30.04,South,190,3.0,4.0,88,0.00,,,0.00,weatherlink.com 1.10,2013-05-26 07:09:00,
2013-05-26 00:24:00,49.8,47.0,30.04,South,190,1.0,3.0,91,0.01,,,0.01,weatherlink.com 1.10,2013-05-26 07:24:00,
2013-05-26 00:39:00,50.2,48.0,30.04,South,190,0.0,2.0,93,0.01,,,0.01,weatherlink.com 1.10,2013-05-26 07:39:00,
2013-05-26 00:54:00,50.3,48.0,30.03,South,190,0.0,1.0,93,0.01,,,0.01,weatherlink.com 1.10,2013-05-26 07:54:00,
2013-05-26 01:09:00,50.2,48.0,30.03,ENE,65,0.0,1.0,93,0.01,,,0.01,weatherlink.com 1.10,2013-05-26 08:09:00,
2013-05-26 01:24:00,50.2,48.0,30.03,ENE,65,0.0,1.0,92,0.00,,,0.01,weatherlink.com 1.10,2013-05-26 08:24:00,
2013-05-26 01:39:00,50.3,48.0,30.03,ENE,65,0.0,2.0,92,0.00,,,0.01,weatherlink.com 1.10,2013-05-26 08:39:00,
2013-05-26 01:54:00,50.2,48.0,30.02,ENE,65,0.0,2.0,92,0.00,,,0.01,weatherlink.com 1.10,2013-05-26 08:54:00,
2013-05-26 02:09:00,50.1,48.0,30.02,SSW,194,2.0,2.0,93,0.00,,,0.01,weatherlink.com 1.10,2013-05-26 09:09:00,
2013-05-26 02:24:00,49.9,48.0,30.02,SSW,194,0.0,0.0,94,0.00,,,0.01,weatherlink.com 1.10,2013-05-26 09:24:00,
2013-05-26 02:39:00,49.8,48.0,30.02,SSW,194,0.0,0.0,94,0.00,,,0.01,weatherlink.com 1.10,2013-05-26 09:39:00,
2013-05-26 02:54:00,49.8,48.0,30.02,SSW,194,0.0,0.0,94,0.00,,,0.01,weatherlink.com 1.10,2013-05-26 09:54:00,
2013-05-26 03:09:00,50.1,49.0,30.02,SSW,194,0.0,0.0,94,0.00,,,0.01,weatherlink.com 1.10,2013-05-26 10:09:00,
2013-05-26 03:24:00,50.2,49.0,30.02,SSW,194,0.0,0.0,94,0.00,,,0.01,weatherlink.com 1.10,2013-05-26 10:24:00,
2013-05-26 03:39:00,49.9,49.0,30.02,SSW,194,0.0,0.0,95,0.01,,,0.02,weatherlink.com 1.10,2013-05-26 10:39:00,
2013-05-26 03:54:00,49.6,49.0,30.02,SSW,194,0.0,0.0,96,0.01,,,0.02,weatherlink.com 1.10,2013-05-26 10:54:00,
2013-05-26 04:09:00,49.2,48.0,30.02,SSW,194,0.0,2.0,96,0.02,,,0.03,weatherlink.com 1.10,2013-05-26 11:09:00,
2013-05-26 04:24:00,48.9,48.0,30.02,SSW,194,0.0,1.0,96,0.03,,,0.04,weatherlink.com 1.10,2013-05-26 11:24:00,
2013-05-26 04:39:00,49.1,48.0,30.02,SSW,194,0.0,1.0,96,0.02,,,0.04,weatherlink.com 1.10,2013-05-26 11:39:00,
2013-05-26 04:54:00,49.3,48.0,30.02,East,80,0.0,3.0,96,0.02,,,0.05,weatherlink.com 1.10,2013-05-26 11:54:00,
2013-05-26 05:10:00,49.2,48.0,30.02,East,80,0.0,2.0,96,0.03,,,0.06,weatherlink.com 1.10,2013-05-26 12:10:00,
2013-05-26 05:25:00,49.2,48.0,30.02,East,80,0.0,2.0,97,0.03,,,0.07,weatherlink.com 1.10,2013-05-26 12:25:00,
2013-05-26 05:40:00,49.3,49.0,30.02,NE,56,0.0,2.0,97,0.04,,,0.08,weatherlink.com 1.10,2013-05-26 12:40:00,
2013-05-26 05:55:00,49.3,49.0,30.02,NNE,30,0.0,2.0,97,0.04,,,0.09,weatherlink.com 1.10,2013-05-26 12:55:00,
2013-05-26 06:10:00,49.4,49.0,30.02,NE,51,1.0,3.0,97,0.04,,,0.10,weatherlink.com 1.10,2013-05-26 13:10:00,
2013-05-26 06:25:00,49.4,49.0,30.02,NE,48,2.0,4.0,97,0.05,,,0.12,weatherlink.com 1.10,2013-05-26 13:25:00,
2013-05-26 06:40:00,49.4,49.0,30.02,NE,51,0.0,4.0,97,0.05,,,0.13,weatherlink.com 1.10,2013-05-26 13:40:00,
2013-05-26 06:55:00,49.3,49.0,30.02,NE,42,1.0,4.0,98,0.05,,,0.14,weatherlink.com 1.10,2013-05-26 13:55:00,
2013-05-26 07:10:00,49.4,49.0,30.02,NE,42,1.0,2.0,98,0.05,,,0.15,weatherlink.com 1.10,2013-05-26 14:10:00,
2013-05-26 07:25:00,49.4,49.0,30.02,NE,42,0.0,3.0,98,0.05,,,0.17,weatherlink.com 1.10,2013-05-26 14:25:00,
2013-05-26 07:40:00,49.5,49.0,30.03,NE,42,0.0,3.0,98,0.05,,,0.18,weatherlink.com 1.10,2013-05-26 14:40:00,
2013-05-26 07:55:00,49.6,49.0,30.03,NE,42,0.0,2.0,98,0.05,,,0.19,weatherlink.com 1.10,2013-05-26 14:55:00,
2013-05-26 08:10:00,49.7,49.0,30.03,NE,42,1.0,1.0,98,0.05,,,0.20,weatherlink.com 1.10,2013-05-26 15:10:00,
2013-05-26 08:25:00,49.8,49.0,30.03,NE,42,1.0,2.0,98,0.05,,,0.22,weatherlink.com 1.10,2013-05-26 15:25:00,
2013-05-26 08:40:00,50.1,50.0,30.04,NE,42,0.0,0.0,98,0.05,,,0.23,weatherlink.com 1.10,2013-05-26 15:40:00,
2013-05-26 08:55:00,50.4,50.0,30.04,NE,42,0.0,0.0,98,0.06,,,0.25,weatherlink.com 1.10,2013-05-26 15:55:00,
2013-05-26 09:10:00,50.5,50.0,30.04,NE,42,0.0,0.0,98,0.05,,,0.26,weatherlink.com 1.10,2013-05-26 16:10:00,
2013-05-26 09:25:00,50.8,51.0,30.04,NE,42,0.0,1.0,99,0.06,,,0.28,weatherlink.com 1.10,2013-05-26 16:25:00,
2013-05-26 09:40:00,50.7,50.0,30.04,NE,42,0.0,2.0,98,0.06,,,0.29,weatherlink.com 1.10,2013-05-26 16:40:00,
2013-05-26 09:55:00,50.8,50.0,30.04,NE,42,0.0,1.0,98,0.06,,,0.31,weatherlink.com 1.10,2013-05-26 16:55:00,
2013-05-26 10:10:00,51.0,51.0,30.04,NE,42,0.0,2.0,98,0.06,,,0.32,weatherlink.com 1.10,2013-05-26 17:10:00,
2013-05-26 10:25:00,51.6,51.0,30.04,NNW,333,0.0,3.0,99,0.05,,,0.33,weatherlink.com 1.10,2013-05-26 17:25:00,
2013-05-26 10:40:00,52.1,52.0,30.05,WSW,256,0.0,2.0,99,0.04,,,0.33,weatherlink.com 1.10,2013-05-26 17:40:00,
2013-05-26 10:55:00,51.5,51.0,30.05,NNE,13,0.0,5.0,98,0.02,,,0.33,weatherlink.com 1.10,2013-05-26 17:55:00,
2013-05-26 11:10:00,51.6,51.0,30.04,NW,317,1.0,4.0,98,0.01,,,0.33,weatherlink.com 1.10,2013-05-26 18:10:00,
2013-05-26 11:25:00,51.8,51.0,30.05,SSE,150,0.0,7.0,98,0.00,,,0.33,weatherlink.com 1.10,2013-05-26 18:25:00,
2013-05-26 11:40:00,52.7,52.0,30.04,SE,132,0.0,3.0,98,0.01,,,0.34,weatherlink.com 1.10,2013-05-26 18:40:00,
2013-05-26 11:55:00,52.3,52.0,30.04,SSE,162,0.0,2.0,97,0.01,,,0.34,weatherlink.com 1.10,2013-05-26 18:55:00,
2013-05-26 12:10:00,52.4,52.0,30.04,SW,232,1.0,3.0,98,0.01,,,0.34,weatherlink.com 1.10,2013-05-26 19:10:00,
2013-05-26 12:25:00,52.5,52.0,30.04,NNW,338,1.0,3.0,97,0.01,,,0.34,weatherlink.com 1.10,2013-05-26 19:25:00,
2013-05-26 12:40:00,52.5,52.0,30.05,North,355,1.0,2.0,97,0.00,,,0.34,weatherlink.com 1.10,2013-05-26 19:40:00,
2013-05-26 12:55:00,53.0,53.0,30.04,North,360,2.0,4.0,98,0.01,,,0.35,weatherlink.com 1.10,2013-05-26 19:55:00,
2013-05-26 13:10:00,53.2,52.0,30.05,NNW,340,1.0,1.0,97,0.01,,,0.35,weatherlink.com 1.10,2013-05-26 20:10:00,
2013-05-26 13:25:00,53.8,53.0,30.05,NNW,341,1.0,4.0,97,0.01,,,0.35,weatherlink.com 1.10,2013-05-26 20:25:00,
2013-05-26 13:40:00,54.4,54.0,30.05,NNW,344,2.0,4.0,97,0.01,,,0.35,weatherlink.com 1.10,2013-05-26 20:40:00,
2013-05-26 13:55:00,54.6,53.0,30.04,NNW,336,0.0,4.0,95,0.00,,,0.35,weatherlink.com 1.10,2013-05-26 20:55:00,
2013-05-26 14:10:00,56.0,54.0,30.04,SSW,205,3.0,6.0,94,0.00,,,0.35,weatherlink.com 1.10,2013-05-26 21:10:00,
2013-05-26 14:25:00,55.9,53.0,30.04,West,262,0.0,4.0,91,0.00,,,0.35,weatherlink.com 1.10,2013-05-26 21:25:00,
2013-05-26 14:40:00,55.3,53.0,30.04,East,85,0.0,2.0,91,0.00,,,0.35,weatherlink.com 1.10,2013-05-26 21:40:00,
2013-05-26 14:55:00,54.9,53.0,30.04,North,355,2.0,3.0,93,0.00,,,0.35,weatherlink.com 1.10,2013-05-26 21:55:00,
2013-05-26 15:10:00,54.8,53.0,30.04,NNE,21,1.0,3.0,94,0.00,,,0.35,weatherlink.com 1.10,2013-05-26 22:10:00,
2013-05-26 15:25:00,54.6,53.0,30.04,NNW,346,1.0,3.0,93,0.00,,,0.35,weatherlink.com 1.10,2013-05-26 22:25:00,
2013-05-26 15:40:00,55.2,53.0,30.04,NNW,338,3.0,3.0,93,0.00,,,0.35,weatherlink.com 1.10,2013-05-26 22:40:00,
2013-05-26 15:55:00,55.0,53.0,30.04,NNE,32,1.0,3.0,93,0.00,,,0.35,weatherlink.com 1.10,2013-05-26 22:55:00,
2013-05-26 16:10:00,55.1,54.0,30.04,NNE,22,0.0,2.0,94,0.00,,,0.35,weatherlink.com 1.10,2013-05-26 23:10:00,
2013-05-26 16:25:00,54.8,53.0,30.03,NNE,19,1.0,2.0,94,0.00,,,0.35,weatherlink.com 1.10,2013-05-26 23:25:00,
2013-05-26 16:40:00,54.8,53.0,30.03,NNE,18,0.0,3.0,94,0.00,,,0.35,weatherlink.com 1.10,2013-05-26 23:40:00,
2013-05-26 16:55:00,54.8,53.0,30.04,NNE,18,0.0,2.0,95,0.00,,,0.35,weatherlink.com 1.10,2013-05-26 23:55:00,
2013-05-26 17:10:00,54.2,53.0,30.03,NNE,19,0.0,2.0,95,0.00,,,0.35,weatherlink.com 1.10,2013-05-27 00:10:00,
2013-05-26 17:25:00,54.4,53.0,30.03,NNE,19,0.0,1.0,95,0.00,,,0.35,weatherlink.com 1.10,2013-05-27 00:25:00,
2013-05-26 17:40:00,54.4,53.0,30.03,NNE,19,1.0,2.0,95,0.00,,,0.35,weatherlink.com 1.10,2013-05-27 00:40:00,
2013-05-26 17:55:00,55.1,54.0,30.03,NNE,19,0.0,1.0,95,0.00,,,0.35,weatherlink.com 1.10,2013-05-27 00:55:00,
2013-05-26 18:10:00,55.3,53.0,30.02,North,355,1.0,3.0,93,0.00,,,0.35,weatherlink.com 1.10,2013-05-27 01:10:00,
2013-05-26 18:25:00,55.1,54.0,30.02,NNE,19,2.0,3.0,94,0.00,,,0.35,weatherlink.com 1.10,2013-05-27 01:25:00,
2013-05-26 18:40:00,54.9,53.0,30.02,NNE,19,0.0,1.0,94,0.00,,,0.35,weatherlink.com 1.10,2013-05-27 01:40:00,
2013-05-26 18:55:00,54.5,53.0,30.02,NE,51,0.0,1.0,94,0.00,,,0.35,weatherlink.com 1.10,2013-05-27 01:55:00,
2013-05-26 19:10:00,54.3,53.0,30.02,NE,51,1.0,2.0,94,0.00,,,0.35,weatherlink.com 1.10,2013-05-27 02:10:00,
2013-05-26 19:25:00,54.3,53.0,30.02,NE,51,2.0,2.0,94,0.00,,,0.35,weatherlink.com 1.10,2013-05-27 02:25:00,
2013-05-26 19:40:00,54.5,53.0,30.01,NE,51,0.0,2.0,93,0.00,,,0.35,weatherlink.com 1.10,2013-05-27 02:40:00,
2013-05-26 19:55:00,54.6,53.0,30.01,NE,51,0.0,2.0,93,0.00,,,0.35,weatherlink.com 1.10,2013-05-27 02:55:00,
2013-05-26 20:10:00,54.5,53.0,30.01,NE,51,0.0,2.0,93,0.00,,,0.35,weatherlink.com 1.10,2013-05-27 03:10:00,
2013-05-26 20:25:00,54.6,53.0,30.01,NE,51,0.0,3.0,93,0.00,,,0.35,weatherlink.com 1.10,2013-05-27 03:25:00,
2013-05-26 20:40:00,54.4,53.0,30.01,ENE,63,2.0,3.0,93,0.00,,,0.35,weatherlink.com 1.10,2013-05-27 03:40:00,
2013-05-26 20:55:00,54.4,53.0,30.01,ENE,65,2.0,3.0,93,0.00,,,0.35,weatherlink.com 1.10,2013-05-27 03:55:00,
2013-05-26 21:10:00,54.4,53.0,30.01,ENE,65,1.0,4.0,93,0.00,,,0.35,weatherlink.com 1.10,2013-05-27 04:10:00,
2013-05-26 21:25:00,54.6,53.0,30.01,ENE,61,0.0,4.0,93,0.00,,,0.35,weatherlink.com 1.10,2013-05-27 04:25:00,
2013-05-26 21:40:00,54.5,53.0,30.01,ENE,71,2.0,3.0,93,0.00,,,0.35,weatherlink.com 1.10,2013-05-27 04:40:00,
2013-05-26 21:55:00,54.0,52.0,30.01,ENE,71,1.0,3.0,94,0.00,,,0.35,weatherlink.com 1.10,2013-05-27 04:55:00,
2013-05-26 22:10:00,54.0,53.0,30.01,ENE,76,0.0,3.0,95,0.00,,,0.35,weatherlink.com 1.10,2013-05-27 05:10:00,
2013-05-26 22:25:00,53.9,53.0,30.01,East,81,1.0,3.0,96,0.00,,,0.35,weatherlink.com 1.10,2013-05-27 05:25:00,
2013-05-26 22:40:00,54.1,53.0,30.01,ENE,67,0.0,4.0,94,0.00,,,0.35,weatherlink.com 1.10,2013-05-27 05:40:00,
2013-05-26 22:55:00,54.1,52.0,30.01,East,88,0.0,3.0,92,0.00,,,0.35,weatherlink.com 1.10,2013-05-27 05:55:00,
2013-05-26 23:10:00,54.3,52.0,30.00,East,80,1.0,5.0,91,0.00,,,0.35,weatherlink.com 1.10,2013-05-27 06:10:00,
2013-05-26 23:25:00,54.4,52.0,30.00,SSW,204,0.0,5.0,91,0.00,,,0.35,weatherlink.com 1.10,2013-05-27 06:25:00,
2013-05-26 23:40:00,54.3,52.0,30.00,SSW,192,0.0,7.0,90,0.00,,,0.35,weatherlink.com 1.10,2013-05-27 06:40:00,
2013-05-26 23:56:00,54.2,51.0,29.99,ENE,64,0.0,4.0,88,0.00,,,0.35,weatherlink.com 1.10,2013-05-27 06:56:00,